EW4115 Weather Reports


Display with metric or nautical units.
time (UTC)temp
F
wind
direction
speed
MPH
gust
MPH
rain 1hr
in
rain 24hr
in
rain mn
in
humidity
%
barometer
mb
20260508133057 77 227 2.0 8.0 0.00 0.00 0.00 42 1014.7
20260508131555 77 254 3.0 9.0 0.00 0.00 0.00 42 1014.8
20260508130051 76 156 1.0 10.0 0.00 0.00 0.00 42 1015.0
20260508124549 76 196 0.0 9.0 0.00 0.00 0.00 41 1015.2
20260508123103 75 156 1.0 7.0 0.00 0.00 0.00 40 1015.5
20260508121545 75 255 1.0 6.0 0.00 0.00 0.00 42 1016.1
20260508120043 74 136 2.0 5.0 0.00 0.00 0.00 45 1016.0
20260508114547 73 208 0.0 7.0 0.00 0.00 0.00 45 1016.0
20260508113135 73 212 0.0 3.0 0.00 0.00 0.00 46 1015.7
20260508111534 72 287 0.0 2.0 0.00 0.00 0.00 49 1016.4
20260508110031 72 287 1.0 3.0 0.00 0.00 0.00 49 1016.7
20260508104531 72 294 1.0 4.0 0.00 0.00 0.00 50 1017.0
20260508103036 72 242 0.0 5.0 0.00 0.00 0.00 48 1017.2
20260508101529 71 140 0.0 7.0 0.00 0.00 0.00 49 1017.0
20260508100028 71 266 0.0 4.0 0.00 0.00 0.00 51 1017.3
20260508094529 72 221 2.0 5.0 0.00 0.00 0.00 49 1017.8
20260508093033 72 268 1.0 7.0 0.00 0.00 0.00 48 1017.8
20260508091533 71 230 2.0 7.0 0.00 0.00 0.00 48 1017.9
20260508090026 71 258 2.0 8.0 0.00 0.00 0.00 50 1018.1
20260508084521 70 231 2.0 6.0 0.00 0.00 0.00 49 1017.9
20260508083019 70 270 0.0 2.0 0.00 0.00 0.00 50 1018.1
20260508081548 70 238 0.0 2.0 0.00 0.00 0.00 49 1018.0
20260508080018 70 239 0.0 3.0 0.00 0.00 0.00 48 1018.3
20260508074516 69 257 0.0 4.0 0.00 0.00 0.00 47 1018.3
20260508073016 68 234 0.0 3.0 0.00 0.00 0.00 47 1018.4
20260508071516 68 234 0.0 5.0 0.00 0.00 0.00 46 1018.6
20260508070006 68 194 0.0 5.0 0.00 0.00 0.00 45 1019.0
20260508064505 67 241 0.0 4.0 0.00 0.00 0.00 45 1018.8
20260508063113 67 252 0.0 7.0 0.00 0.00 0.00 45 1018.6
20260508061558 67 244 0.0 9.0 0.00 0.00 0.00 44 1018.4
20260508060057 67 246 2.0 5.0 0.00 0.00 0.00 45 1017.9
20260508054552 66 254 1.0 4.0 0.00 0.00 0.00 50 1017.3
20260508053051 65 46 0.0 2.0 0.00 0.00 0.00 61 1017.0
20260508051552 64 46 0.0 2.0 0.00 0.00 0.00 66 1016.7
20260508050048 64 46 0.0 0.0 0.00 0.00 0.00 68 1016.7
20260508044543 63 46 0.0 0.0 0.00 0.00 0.00 68 1016.8
20260508043040 63 46 0.0 0.0 0.00 0.00 0.00 68 1016.4
20260508041538 63 46 0.0 1.0 0.00 0.00 0.00 68 1016.1
20260508040045 63 46 0.0 0.0 0.00 0.00 0.00 68 1015.9
20260508034535 63 46 0.0 0.0 0.00 0.00 0.00 67 1015.7
20260508033034 63 46 0.0 0.0 0.00 0.00 0.00 68 1015.6
20260508031536 63 46 0.0 1.0 0.00 0.00 0.00 67 1015.7
20260508030033 63 46 0.0 1.0 0.00 0.00 0.00 67 1015.5
20260508024545 64 46 0.0 1.0 0.00 0.00 0.00 69 1015.7
20260508023032 64 46 0.0 0.0 0.00 0.00 0.00 68 1015.9
20260508021530 64 46 0.0 1.0 0.00 0.00 0.00 68 1015.7
20260508020029 64 46 0.0 1.0 0.00 0.00 0.00 68 1015.9
20260508014529 64 46 0.0 0.0 0.00 0.00 0.00 69 1015.9
20260508013024 64 46 0.0 1.0 0.00 0.00 0.00 68 1016.1
20260508011523 65 46 0.0 0.0 0.00 0.00 0.00 67 1016.3
20260508010031 65 46 0.0 0.0 0.00 0.00 0.00 67 1016.4
20260508004520 65 46 0.0 1.0 0.00 0.00 0.00 66 1016.6
20260508003019 65 46 0.0 0.0 0.00 0.00 0.00 65 1016.4
20260508001518 65 46 0.0 1.0 0.00 0.00 0.00 64 1016.6
20260508000015 65 46 0.0 1.0 0.00 0.00 0.00 62 1016.6
20260507234518 65 46 0.0 1.0 0.00 0.00 0.00 62 1016.8
20260507233032 65 46 0.0 0.0 0.00 0.00 0.00 61 1017.2
20260507231511 65 46 0.0 0.0 0.00 0.00 0.00 59 1017.1
20260507230009 66 46 0.0 0.0 0.00 0.00 0.00 58 1017.2
20260507224508 66 46 0.0 1.0 0.00 0.00 0.00 57 1017.4
20260507223006 66 47 0.0 1.0 0.00 0.00 0.00 56 1017.4
20260507221510 66 47 0.0 0.0 0.00 0.00 0.00 55 1017.5
20260507220003 66 47 0.0 0.0 0.00 0.00 0.00 55 1017.6
20260507214608 66 47 0.0 1.0 0.00 0.00 0.00 54 1017.9
20260507213201 66 47 0.0 1.0 0.00 0.00 0.00 54 1017.9
20260507211610 66 47 0.0 1.0 0.00 0.00 0.00 53 1018.0
20260507204557 67 47 0.0 0.0 0.00 0.00 0.00 53 1017.9
20260507203106 67 47 0.0 1.0 0.00 0.00 0.00 52 1017.9
20260507201559 67 47 0.0 1.0 0.00 0.00 0.00 50 1017.9
20260507200107 67 47 0.0 1.0 0.00 0.00 0.00 50 1017.8
20260507194552 67 47 0.0 1.0 0.00 0.00 0.00 49 1017.8
20260507193051 67 47 0.0 1.0 0.00 0.00 0.00 49 1017.7
20260507191550 67 47 0.0 1.0 0.00 0.00 0.00 48 1017.6
20260507190057 68 45 0.0 1.0 0.00 0.00 0.00 49 1017.7
20260507184556 68 45 0.0 1.0 0.00 0.00 0.00 50 1017.7
20260507183050 68 45 0.0 1.0 0.00 0.00 0.00 50 1017.5
20260507181547 69 45 0.0 1.0 0.00 0.00 0.00 50 1017.5
20260507180050 69 45 0.0 2.0 0.00 0.00 0.00 50 1017.5
20260507174549 69 45 0.0 1.0 0.00 0.00 0.00 51 1017.3
20260507173045 70 46 0.0 1.0 0.00 0.00 0.00 49 1017.4
20260507171544 70 46 0.0 4.0 0.00 0.00 0.00 47 1017.4
20260507170044 72 58 0.0 5.0 0.00 0.00 0.00 45 1017.0
20260507164556 73 75 0.0 5.0 0.00 0.00 0.00 39 1016.6
20260507163043 74 236 0.0 2.0 0.00 0.00 0.00 31 1016.7
20260507161543 74 236 0.0 3.0 0.00 0.00 0.00 31 1016.8
20260507160043 75 235 1.0 5.0 0.00 0.00 0.00 31 1016.8
20260507154550 76 204 0.0 5.0 0.00 0.00 0.00 30 1016.9
20260507153041 76 242 1.0 8.0 0.00 0.00 0.00 29 1017.2
20260507151541 77 146 0.0 6.0 0.00 0.00 0.00 29 1017.3
20260507150040 77 111 1.0 10.0 0.00 0.00 0.00 30 1017.2
20260507144539 77 235 1.0 7.0 0.00 0.00 0.00 30 1017.2
20260507143038 78 237 1.0 8.0 0.00 0.00 0.00 28 1017.1
20260507141542 78 248 2.0 9.0 0.00 0.00 0.00 29 1017.1
20260507140037 79 287 3.0 10.0 0.00 0.00 0.00 27 1016.7
20260507134539 80 292 2.0 8.0 0.00 0.00 0.00 26 1016.7